EHI
0 0 0 0 0 0 0 0 0 0 0 0 0 0 0 0 2 4 5 3 2 3 6 8 8 5 3 3 4 5 6 5 3 1 0 0 0 0 1 1 1 0 0
0 0 0 0 0 0 0 0 0 0 0 0 0 0 0 0 1 3 3 2 1 1 3 4 4 3 2 3 3 3 4 4 3 1 0 0 0 0 0 0 0 0 0
0 0 0 0 0 1 0 0 0 0 0 0 0 0 0 0 0 1 1 1 1 1 1 2 1 1 2 2 1 1 1 1 1 0 0 0 0 0 0 0 0 0 0
0 0 0 0 0 0 0 0 0 0 0 0 0 0 0 0 0 0 0 0 1 2 1 2 2 1 1 2 1 0 0 0 0 0 0 0 0 0 0 0 0 0 0
0 0 0 1 1 0 0 0 0 0 0 0 0 0 0 0 0 0 0 0 1 1 1 1 2 1 1 1 1 1 1 1 0 0 0 0 0 0 0 0 0 0 0
0 0 1 4 5 2 0 0 0 0 0 0 0 0 0 0 0 0 0 0 0 0 0 0 0 0 0 0 0 1 2 2 1 0 0 0 0 0 0 0 0 0 0
0 0 2 6 7 5 3 1 1 1 0 0 0 0 0 0 0 0 0 0 0 0 0 0 0 0 0 0 0 1 2 3 1 0 0 0 0 0 0 0 0 0 1
0 0 1 4 6 6 5 3 2 2 1 0 0 0 0 0 0 0 0 0 0 0 0 0 0 0 0 0 0 0 1 2 1 0 0 0 0 0 0 0 0 0 1
0 0 0 1 3 4 4 3 3 3 1 0 0 0 0 0 0 0 0 0 0 0 0 0 0 0 0 0 0 0 0 0 0 0 0 0 0 0 0 0 0 0 1
0 0 0 0 1 2 2 2 2 2 2 1 0 0 0 0 0 0 0 0 0 0 0 0 0 0 0 0 0 0 0 0 0 0 0 0 0 0 0 0 0 0 0
0 0 0 0 1 1 0 1 1 1 1 1 0 0 0 0 0 0 0 0 0 0 0 0 0 0 0 0 0 0 0 0 0 0 0 1 2 1 1 1 1 1 0
0 0 0 0 0 0 0 0 0 0 0 0 0 0 0 0 0 0 0 0 0 0 0 0 0 0 0 0 0 0 0 0 0 0 1 3 4 3 2 2 2 1 1
1 1 0 0 0 0 0 0 0 0 0 0 0 0 0 0 0 0 0 0 0 0 0 0 0 0 0 0 0 0 0 0 0 0 2 6 6 4 3 2 1 1 0
2 1 0 0 0 0 0 0 0 0 0 0 0 0 0 0 0 0 0 0 0 0 0 0 0 0 0 0 0 0 0 0 0 0 3 7 8 6 4 1 0 0 0
1 1 0 0 0 0 0 0 0 0 0 0 0 0 0 0 0 0 0 0 0 0 0 0 0 0 0 0 0 0 0 0 0 0 2 5 8 8 5 2 0 0 0
0 0 0 0 0 0 0 0 0 0 0 0 0 0 0 0 0 0 0 0 0 0 0 0 0 0 0 0 0 0 0 0 0 0 0 2 6 7 6 2 0 0 0
0 0 0 0 0 0 0 0 0 0 0 0 0 0 0 0 0 0 0 0 0 0 0 0 0 0 0 0 0 0 0 0 0 0 0 1 2 4 3 1 0 0 0
0 0 0 0 0 0 0 0 0 0 0 0 0 0 0 0 0 0 0 0 0 0 0 0 0 0 0 0 0 0 0 0 0 0 0 0 0 1 1 0 0 0 0
0 0 0 0 0 0 0 0 0 0 0 0 0 0 0 0 0 0 0 0 0 0 0 0 0 0 0 0 0 0 0 0 0 0 0 0 0 0 0 0 0 0 0
0 0 0 0 0 0 0 0 0 0 0 0 0 0 0 0 0 0 0 0 0 0 0 0 0 0 0 0 0 0 0 0 0 0 0 0 0 0 0 0 0 0 0
0 0 0 0 0 0 0 0 0 0 0 0 0 0 0 0 0 0 0 0 0 0 0 0 0 0 0 0 0 0 0 0 0 0 0 0 0 0 0 0 0 0 0
0 0 0 0 0 0 0 0 0 0 0 0 0 0 0 0 0 0 0 0 0 0 0 0 0 0 0 0 0 0 0 0 0 0 0 0 0 0 0 0 0 0 0
0 0 0 0 0 0 0 0 0 0 0 0 0 0 0 0 0 0 0 0 0 0 0 0 0 0 0 0 0 0 0 0 0 0 0 0 0 0 0 0 0 0 0
0 0 0 0 0 0 0 0 0 0 0 0 0 0 0 0 0 0 0 0 0 0 0 0 0 0 0 0 0 0 0 0 0 0 0 0 0 0 0 0 0 0 0
0 0 0 0 0 0 0 0 0 0 0 0 0 0 0 0 0 0 0 0 0 0 0 0 0 0 0 0 0 0 0 0 0 0 0 0 0 0 0 0 0 0 0
0 0 0 0 0 0 0 0 0 0 0 0 0 0 0 0 0 0 0 0 0 0 0 0 0 0 0 0 0 0 0 0 0 0 0 0 0 0 0 0 0 0 0
Wind_Speed
4 5 11 12 12 12 12 11 10 10 9 9 9 9 9 9 8 8 8 8 8 8 8 8 8 8 8 8 8 8 8 8 9 9 9 9 10 10 9 10 9 6 10
8 7 12 12 13 12 12 11 10 10 9 9 9 8 8 8 7 7 7 7 7 7 7 7 7 7 7 7 7 7 7 7 7 7 8 8 9 10 10 9 8 5 9
10 7 9 12 12 12 12 11 10 10 9 9 8 8 8 8 7 7 7 6 6 6 6 6 6 7 6 6 6 6 6 6 6 6 7 3 5 8 9 9 8 8 8
11 7 8 12 11 11 11 10 10 9 9 8 8 8 7 7 7 6 6 6 6 5 5 5 5 5 5 4 4 4 5 5 5 5 3 2 3 7 8 8 8 8 7
10 7 9 12 11 11 10 10 9 9 9 8 8 7 7 6 6 6 6 5 5 5 5 5 5 4 4 3 2 3 4 4 6 6 4 3 3 6 8 7 7 8 7
10 8 9 13 12 11 10 10 9 9 9 8 8 7 7 6 6 5 5 5 5 5 4 4 4 4 3 2 1 2 3 4 5 4 3 3 3 6 7 7 7 7 7
10 9 10 14 13 12 11 10 10 9 9 8 8 7 7 7 6 5 5 5 5 4 4 4 3 3 3 2 1 0 1 3 4 3 2 2 3 6 7 7 7 7 7
9 8 8 13 13 12 12 11 11 10 10 9 9 8 8 7 7 6 6 6 5 5 4 4 4 4 4 3 3 2 0 1 4 4 3 2 5 6 7 7 7 7 7
4 3 3 4 8 12 12 12 12 11 11 11 10 9 9 8 8 7 7 7 6 6 6 5 5 5 5 5 4 4 2 1 2 2 4 2 5 7 7 7 7 7 7
6 5 3 2 1 3 6 12 13 13 12 12 11 11 10 10 9 9 8 8 8 8 7 7 7 6 6 6 6 5 3 1 2 2 2 4 7 8 8 8 7 7 7
6 5 4 3 3 2 4 8 10 12 12 12 10 12 10 5 5 6 8 10 10 10 9 9 8 8 7 7 7 6 2 1 1 2 3 6 9 9 8 8 8 7 7
5 4 3 3 3 3 3 3 3 5 5 6 5 6 5 5 5 7 8 13 13 12 11 10 10 9 6 3 4 5 1 2 2 2 3 9 10 9 9 8 8 7 7
3 4 3 3 4 3 3 2 1 2 3 4 5 6 5 5 4 5 3 6 8 9 5 6 6 4 3 3 3 2 2 2 2 3 4 10 11 10 10 9 8 8 7
4 4 4 3 3 3 3 3 2 2 2 3 5 6 5 4 4 4 4 4 4 3 4 4 3 4 4 5 4 4 4 3 3 3 4 11 11 11 11 10 9 8 8
5 5 4 4 3 3 2 3 2 2 3 3 3 5 6 5 5 5 4 4 5 4 4 5 5 5 5 5 5 6 5 5 5 5 4 10 11 11 11 11 9 8 8
5 5 5 5 4 3 3 2 3 3 3 3 3 5 6 5 5 5 4 4 5 5 5 5 6 5 5 5 6 6 6 6 6 6 4 7 11 11 11 11 10 9 9
4 5 6 5 4 4 4 4 3 3 3 3 3 4 5 5 5 5 5 4 4 4 5 5 5 4 4 5 6 6 6 7 8 7 6 5 5 9 10 11 11 10 10
5 5 6 7 6 6 5 5 3 3 4 4 3 3 5 5 5 4 4 5 5 4 4 4 4 4 4 4 3 4 5 6 8 8 7 6 5 5 8 11 11 11 11
5 5 6 6 6 6 6 5 4 4 4 4 3 3 4 4 5 4 4 4 5 4 4 4 4 4 4 4 3 3 4 5 7 8 7 7 6 5 5 8 11 11 10
5 5 6 6 6 6 5 4 4 4 4 3 3 4 4 4 4 4 4 5 5 4 4 4 3 3 3 3 3 3 3 5 6 7 8 7 6 6 6 6 6 7 10
6 6 6 6 6 5 4 3 4 4 4 4 4 4 4 4 4 4 4 4 4 5 5 6 4 3 3 2 2 0 1 1 4 5 6 6 7 7 6 6 5 4 5
6 6 6 6 7 6 4 4 3 4 4 4 3 4 4 4 4 4 5 4 5 4 5 5 4 3 3 3 3 3 1 1 1 2 4 6 8 6 7 8 6 6 5
6 6 6 6 7 6 6 4 4 3 3 3 3 3 4 4 5 5 5 5 5 5 6 6 6 6 4 3 3 5 4 4 2 1 2 4 6 6 6 6 7 7 6
6 6 6 6 6 6 6 5 5 4 3 4 4 4 5 5 4 5 5 5 5 5 6 7 7 5 5 4 3 2 3 4 4 2 1 1 3 5 5 6 7 7 7
5 6 6 6 6 6 6 6 5 4 4 4 4 5 5 4 4 4 5 5 6 5 6 6 6 6 5 5 4 3 2 1 2 4 3 1 1 1 3 4 4 5 7
5 5 6 6 7 7 7 7 6 6 6 6 5 5 4 4 4 4 4 4 5 5 6 7 6 7 6 6 5 4 4 4 3 3 3 3 2 1 1 1 2 4 5
Wind_Direction
160 168 150 143 140 140 138 136 135 132 129 125 121 116 111 107 102 98 94 90 86 82 83 87 91 87 83 78 72 70 70 72 77 78 79 77 72 72 86 95 89 86 92
155 159 148 144 141 141 142 141 140 137 134 132 130 126 121 117 111 107 103 99 96 91 90 93 98 96 89 81 72 67 67 70 79 83 81 78 76 76 85 96 97 98 97
145 149 148 147 144 142 143 143 141 139 137 137 135 133 130 126 121 117 113 110 107 102 100 101 102 103 98 86 74 67 63 63 70 90 91 80 75 80 86 94 98 100 102
144 148 150 149 146 144 144 145 144 143 142 141 140 138 136 133 130 127 124 120 118 115 112 111 108 108 106 96 83 68 57 52 62 95 97 81 76 83 88 93 97 99 101
146 148 153 152 150 149 149 149 148 148 148 148 147 147 144 143 142 140 135 131 129 126 124 123 120 118 113 103 86 62 49 49 69 92 95 83 76 87 88 92 97 98 99
149 153 159 157 157 157 156 156 156 156 156 157 158 159 159 157 155 153 151 147 143 140 139 139 139 135 131 123 96 47 38 45 80 102 112 107 97 96 92 92 96 100 101
155 161 167 165 165 166 166 167 168 168 169 170 171 172 173 172 171 168 167 162 160 162 161 161 164 166 169 176 188 291 23 43 105 123 134 122 117 107 103 99 98 100 100
157 164 172 174 174 176 178 179 180 181 183 184 185 184 186 187 187 184 182 177 175 180 182 182 190 195 200 210 222 237 277 39 116 145 149 143 135 119 113 106 102 101 103
107 130 164 188 188 188 190 192 192 192 194 195 194 194 195 197 196 197 196 192 190 192 197 200 207 214 218 224 232 241 255 82 114 157 162 158 150 136 124 115 111 105 104
57 48 27 349 263 221 210 207 205 203 203 203 202 202 202 203 204 207 207 205 205 206 208 211 216 222 228 234 240 242 239 101 135 182 163 174 162 145 133 125 119 111 105
38 33 28 14 354 311 254 228 218 213 211 209 209 209 206 205 208 213 216 214 215 215 215 217 221 226 233 241 245 244 231 136 168 180 177 179 164 151 143 135 127 122 118
23 14 18 3 341 332 300 266 240 228 220 212 208 211 204 196 206 217 225 223 221 220 220 223 226 231 235 243 256 256 201 170 183 187 191 178 168 158 150 144 140 135 130
15 6 360 355 346 345 326 313 268 246 234 224 219 216 212 204 207 218 218 231 226 222 220 228 231 230 229 231 236 231 206 188 193 195 193 180 171 163 158 155 149 144 139
8 356 347 339 332 329 330 317 297 277 250 237 230 221 211 209 210 210 209 210 206 205 202 216 220 227 233 236 234 227 212 194 191 190 195 184 175 169 165 163 158 154 148
360 346 336 333 328 318 319 314 319 294 270 261 253 234 214 207 209 206 205 203 205 204 204 212 218 223 232 237 235 225 209 194 187 188 192 185 176 172 169 169 166 162 157
353 342 334 324 319 320 308 294 286 283 281 276 261 253 232 217 210 202 200 202 206 208 213 217 221 218 225 228 232 223 205 188 184 187 187 185 179 175 174 174 173 170 166
341 340 338 328 326 321 310 300 294 280 278 271 264 258 248 233 216 205 201 199 200 199 213 224 229 224 228 227 226 216 194 183 178 182 184 181 180 181 179 179 177 177 177
348 341 331 338 334 317 303 296 291 286 280 274 268 264 257 250 235 214 207 203 192 184 200 215 214 214 228 219 211 204 186 178 177 180 182 181 177 182 186 186 182 183 184
350 344 339 333 331 323 312 299 291 290 284 276 268 264 259 253 243 226 218 209 190 182 193 215 204 196 209 210 205 199 182 176 175 182 185 186 184 182 181 190 186 186 188
350 347 339 334 332 327 319 311 303 299 291 283 273 264 259 252 246 232 228 219 196 190 193 197 200 200 198 194 200 196 193 185 177 184 188 187 188 189 186 185 185 193 193
347 344 337 333 328 331 326 317 307 300 295 292 281 273 266 253 244 233 233 221 204 201 202 193 186 195 200 170 133 152 327 201 184 185 184 182 189 192 187 187 186 184 195
337 333 334 335 328 328 316 297 272 272 275 272 280 288 276 264 250 241 226 218 210 204 202 199 187 179 194 174 150 139 149 336 291 193 178 187 190 186 188 193 189 188 189
333 331 332 327 326 324 323 316 312 306 302 308 307 297 287 277 259 245 235 223 214 204 204 202 193 186 192 194 174 154 157 198 228 270 196 189 183 180 189 190 192 193 193
322 323 323 322 324 325 328 329 323 317 301 284 285 285 291 288 270 251 240 230 223 217 210 208 199 192 184 189 195 194 170 160 157 186 274 190 179 180 185 190 195 195 194
318 324 320 324 327 327 329 329 323 315 296 291 293 296 298 295 286 266 245 233 227 221 217 211 202 197 193 188 180 175 166 153 141 144 174 178 143 172 177 178 181 187 191
320 328 329 333 327 326 329 328 324 317 314 314 313 312 308 300 293 284 259 240 231 222 216 211 204 203 202 195 187 179 167 161 170 154 157 166 164 179 146 148 163 181 185